Home > Time Zones > World Clock > Weather > India > Churu > Past weeks

Flag for India Weather past 2 weeks in Churu, Rajasthan, India

Now
97 °F

Scattered clouds.


Feels Like: 103 °F
Forecast: 78 / 95 °F
Wind: 6 mph from West

Location: Jaipur / Sanganer

Current Time: Aug 31, 2015 at 3:11:40 PM

Latest Report: Aug 31, 2015 at 2:30 PM


Visibility: 2 mi

Pressure: 29.71 "Hg

Humidity: 42%

Dew point: 70 °F

Location of ChuruLocation

Historic Weather in Churu — Graph

°F

Churu temperature yesterday

Maximum temperature yesterday: 97 °F (at 5:00 PM)
Minimum temperature yesterday: 82 °F (at 3:00 AM)
Average temperature yesterday: 89 °F

Past Weeks' High & Low Weather Summary

 TemperatureHumidityPressure
High99 °F (Aug 28, 3:00 PM)100% (Aug 17, 1:00 AM)29.95 "Hg (Aug 17, 1:00 AM)
Low77 °F (Aug 20, 6:00 AM)39% (Aug 29, 5:00 PM)29.62 "Hg (Aug 17, 4:00 PM)
Average86 °F68%29.70 "Hg
* Reported Aug 16 1:00 PM — Aug 31 1:00 PM, Churu, Weather by CustomWeather, © 2015

Note: Actual official high and low records may vary slightly from our data, if they occured in-between our weather recording intervals... More about our weather records

Advertising

Churu weather history for previous 24 hours

 ConditionsComfort  
Time TempWeatherWind HumidityBarometerVisibility
1:00 PM
Mon, Aug 31
93 °FScattered clouds.9 mph47%29.74 "Hg2 mi
12:00 PM91 °FScattered clouds.7 mph52%29.74 "Hg2 mi
10:00 AM88 °FScattered clouds.7 mph62%29.77 "Hg2 mi
9:00 AM86 °FScattered clouds.6 mph66%29.77 "Hg2 mi
7:00 AM82 °FScattered clouds.3 mph79%29.68 "Hg2 mi
6:00 AM82 °FPassing clouds.6 mph79%29.68 "Hg2 mi
5:00 AM82 °FPassing clouds.6 mph79%29.68 "Hg2 mi
3:00 AM91 °FPassing clouds.6 mph52%29.65 "Hg2 mi
2:00 AM91 °FPassing clouds.6 mph52%29.65 "Hg2 mi
1:00 AM86 °FPassing clouds.7 mph66%29.71 "Hg2 mi
12:00 AM86 °FPassing clouds.6 mph66%29.71 "Hg2 mi
11:00 PM
Sun, Aug 30
91 °FPassing clouds.6 mph52%29.65 "Hg2 mi
10:00 PM88 °FPassing clouds.5 mph59%29.71 "Hg2 mi
9:00 PM90 °FPassing clouds.3 mph55%29.68 "Hg2 mi
8:00 PM91 °FPassing clouds.6 mph52%29.65 "Hg2 mi
6:30 PM93 °FScattered clouds.5 mph47%29.62 "Hg2 mi
6:00 PM95 °FScattered clouds.5 mph44%29.62 "Hg2 mi
5:00 PM97 °FScattered clouds.6 mph44%29.62 "Hg2 mi
4:00 PM95 °FScattered clouds.7 mph47%29.65 "Hg2 mi
3:00 PM95 °FScattered clouds.6 mph47%29.68 "Hg2 mi
Weather by CustomWeather, © 2015

See weather overviewHow to use our weather pages